Weather History for KTUS - January, 2012

Change the Weather History Date:

Saturday, January 14, 2012

  Actual Average Record
Temperature  
Mean Temperature 55 °F 52 °F  
Max Temperature 71 °F 65 °F 81 °F (1912)
Min Temperature 38 °F 40 °F 21 °F (2013)
Degree Days  
Heating Degree Days 10 13  
Month to date heating degree days 128 182  
Since 1 July heating degree days 806 793  
Cooling Degree Days 0 0  
Month to date cooling degree days 2 0  
Year to date cooling degree days 2 0  
Growing Degree Days 4 (Base 50)    
Moisture  
Dew Point 11 °F    
Average Humidity 26    
Maximum Humidity 44    
Minimum Humidity 7    
Precipitation  
Precipitation 0.00 in 0.03 in 0.72 in (1920)
Month to date precipitation 0.00 0.42  
Year to date precipitation 0.00 0.42  
Snow  
Snow 0.00 in - - ()
Month to date snowfall 0.0  
Snow Depth 0.00 in    
Sea Level Pressure  
Sea Level Pressure 30.14 in    
Wind  
Wind Speed 7 mph (SE)    
Max Wind Speed 26 mph    
Max Gust Speed 31 mph    
Visibility 10 miles    
Events      
T = Trace of Precipitation, MM = Missing Value Source: NWS Daily Summary

Daily Weather History Graph

Daily Weather History Graph

Search for Another Location

Airport or City:

Trip Planner

Search our weather history database for the weather conditions in past years. The results will help you decide how hot, cold, wet, or windy it might be!

Date:

Astronomy

Jan. 14, 2012 Rise Set
Actual Time 7:25 AM MST 5:40 PM MST
Civil Twilight 6:58 AM MST 6:07 PM MST
Nautical Twilight 6:28 AM MST 6:37 PM MST
Astronomical Twilight 5:59 AM MST 7:06 PM MST
Moon 11:39 PM MST (1/14) 10:36 AM MST (1/14)
Length of Visible Light 11h 08m
Length of Day
10h 15m
Waning Gibbous, 68% of the Moon is Illuminated
Jan 14
Waning Gibbous
Jan 16
Last Quarter
Jan 23
New
Jan 30
First Quarter
Feb 7
Full

Hourly Weather History & Observations

Time (MST) Temp. Windchill Dew Point Humidity Pressure Visibility Wind Dir Wind Speed Gust Speed Precip Events Conditions
12:53 AM 50.0 °F - 10.9 °F 21% 30.16 in 10.0 mi East 8.1 mph - N/A   Clear
1:53 AM 45.0 °F - 16.0 °F 31% 30.18 in 10.0 mi Calm Calm - N/A   Clear
2:53 AM 37.9 °F 33.5 °F 18.0 °F 45% 30.18 in 10.0 mi WSW 5.8 mph - N/A   Clear
3:53 AM 50.0 °F - 9.0 °F 19% 30.15 in 10.0 mi ESE 12.7 mph - N/A   Clear
4:53 AM 48.9 °F - 8.1 °F 19% 30.15 in 10.0 mi ESE 10.4 mph - N/A   Clear
5:53 AM 48.0 °F - 8.1 °F 20% 30.16 in 10.0 mi ESE 8.1 mph - N/A   Clear
6:53 AM 43.0 °F - 10.0 °F 26% 30.18 in 10.0 mi Calm Calm - N/A   Clear
7:53 AM 51.1 °F - 6.1 °F 16% 30.16 in 10.0 mi ESE 9.2 mph - N/A   Clear
8:53 AM 53.1 °F - 6.1 °F 15% 30.19 in 10.0 mi SE 10.4 mph - N/A   Clear
9:53 AM 57.9 °F - 3.9 °F 11% 30.19 in 10.0 mi SE 21.9 mph - N/A   Clear
10:53 AM 62.1 °F - 1.9 °F 9% 30.18 in 10.0 mi ESE 12.7 mph 24.2 mph N/A   Clear
11:53 AM 66.0 °F - 1.0 °F 8% 30.15 in 10.0 mi SE 15.0 mph - N/A   Clear
12:53 PM 66.9 °F - 7.0 °F 10% 30.12 in 10.0 mi South 8.1 mph - N/A   Clear
1:53 PM 69.1 °F - 3.9 °F 8% 30.09 in 10.0 mi SSE 9.2 mph - N/A   Clear
2:53 PM 70.0 °F - 6.1 °F 8% 30.08 in 10.0 mi SE 5.8 mph - N/A   Clear
3:53 PM 70.0 °F - 6.1 °F 8% 30.07 in 10.0 mi ESE 3.5 mph - N/A   Clear
4:53 PM 68.0 °F - 9.0 °F 10% 30.08 in 10.0 mi Calm Calm - N/A   Scattered Clouds
5:53 PM 64.9 °F - 12.9 °F 13% 30.10 in 10.0 mi West 5.8 mph - N/A   Overcast
6:53 PM 61.0 °F - 18.0 °F 19% 30.12 in 10.0 mi West 6.9 mph - N/A   Overcast
7:53 PM 61.0 °F - 17.1 °F 18% 30.12 in 10.0 mi Calm Calm - N/A   Overcast
8:53 PM 57.9 °F - 19.9 °F 23% 30.12 in 10.0 mi East 3.5 mph - N/A   Overcast
9:53 PM 55.9 °F - 21.0 °F 26% 30.12 in 10.0 mi Calm Calm - N/A   Partly Cloudy
10:53 PM 55.0 °F - 21.0 °F 27% 30.11 in 10.0 mi SSE 3.5 mph - N/A   Mostly Cloudy
11:53 PM 52.0 °F - 21.0 °F 30% 30.09 in 10.0 mi ESE 4.6 mph - N/A   Partly Cloudy